OAN110 BGSF-BIKF

Flight info

Callsign OAN110
Flight time N/A
Altitude 29000
Route WUTAN UW28 DA UT592 NONRO DCT SOPEN DCT INGAN
Aircraft C17/H-SDE1E2FGHIJ5RTUWXY/LB1D1

Departure

Time 2026-05-08 05:25
Airport Kangerlussuaq International Airport (BGSF)

Arrival

Time N/A
Airport Keflavik International Airport (BIKF)
Time Latitude Longitude Altitude Speed Heading
2026-05-08 05:11 67.00686 -50.71668 153 ft 9 kts 152°
2026-05-08 05:12 67.00706 -50.71698 153 ft 7 kts 142°
2026-05-08 05:12 67.00721 -50.71743 153 ft 8 kts 88°
2026-05-08 05:12 67.00720 -50.71765 153 ft 12 kts 62°
2026-05-08 05:18 67.00741 -50.71667 154 ft 14 kts 62°
2026-05-08 05:18 67.00809 -50.71338 156 ft 25 kts 62°
2026-05-08 05:19 67.00884 -50.70982 158 ft 19 kts 59°
2026-05-08 05:19 67.00965 -50.70790 158 ft 14 kts 22°
2026-05-08 05:19 67.01021 -50.70627 157 ft 11 kts 64°
2026-05-08 05:19 67.01061 -50.70416 157 ft 18 kts 64°
2026-05-08 05:20 67.01164 -50.70240 156 ft 21 kts 345°
2026-05-08 05:20 67.01311 -50.70365 160 ft 23 kts 341°
2026-05-08 05:20 67.01338 -50.70634 160 ft 19 kts 243°
2026-05-08 05:20 67.01262 -50.70968 156 ft 24 kts 239°
2026-05-08 05:21 67.01184 -50.71345 154 ft 26 kts 243°
2026-05-08 05:21 67.01090 -50.71792 157 ft 32 kts 241°
2026-05-08 05:21 67.00967 -50.72353 147 ft 42 kts 241°
2026-05-08 05:21 67.00819 -50.73056 132 ft 48 kts 242°
2026-05-08 05:22 67.00667 -50.73776 111 ft 38 kts 242°
2026-05-08 05:22 67.00559 -50.74172 100 ft 24 kts 238°
2026-05-08 05:22 67.00542 -50.74398 100 ft 6 kts 356°
2026-05-08 05:22 67.00558 -50.74348 101 ft 5 kts 73°
2026-05-08 05:23 67.00584 -50.74189 101 ft 14 kts 60°
2026-05-08 05:23 67.00598 -50.74120 103 ft 0 kts 61°
2026-05-08 05:24 67.00612 -50.74057 104 ft 18 kts 61°
2026-05-08 05:24 67.00823 -50.73058 133 ft 112 kts 62°
2026-05-08 05:24 67.01301 -50.70806 485 ft 171 kts 61°
2026-05-08 05:25 67.01933 -50.67944 1074 ft 188 kts 60°
2026-05-08 05:25 67.02614 -50.64949 1586 ft 196 kts 64°
2026-05-08 05:25 67.02763 -50.61574 2163 ft 196 kts 97°
2026-05-08 05:25 67.02606 -50.58034 2692 ft 209 kts 98°
2026-05-08 05:26 67.02286 -50.54230 3223 ft 225 kts 108°
2026-05-08 05:26 67.01738 -50.50497 3773 ft 219 kts 113°
2026-05-08 05:26 67.01170 -50.46869 4336 ft 227 kts 111°
2026-05-08 05:26 67.00610 -50.43041 4921 ft 224 kts 111°
2026-05-08 05:27 67.00074 -50.39341 5476 ft 227 kts 111°
2026-05-08 05:27 66.99513 -50.35522 6035 ft 231 kts 111°
2026-05-08 05:27 66.98949 -50.31676 6613 ft 230 kts 111°
2026-05-08 05:27 66.98383 -50.27818 7149 ft 235 kts 111°
2026-05-08 05:28 66.97803 -50.23888 7699 ft 236 kts 112°
2026-05-08 05:28 66.97227 -50.19983 8278 ft 236 kts 112°
2026-05-08 05:28 66.96639 -50.16021 8872 ft 241 kts 113°
2026-05-08 05:28 66.96046 -50.12012 9503 ft 241 kts 113°
2026-05-08 05:29 66.95459 -50.07999 10086 ft 243 kts 111°
2026-05-08 05:29 66.95029 -50.03760 10651 ft 250 kts 105°
2026-05-08 05:29 66.94681 -49.99392 11231 ft 251 kts 106°
2026-05-08 05:29 66.94262 -49.94919 11840 ft 273 kts 108°
2026-05-08 05:30 66.93800 -49.90238 12465 ft 276 kts 107°
2026-05-08 05:30 66.93335 -49.85379 13082 ft 282 kts 107°
2026-05-08 05:30 66.92862 -49.80455 13680 ft 288 kts 108°
2026-05-08 05:30 66.92384 -49.75488 14218 ft 289 kts 108°
2026-05-08 05:31 66.91904 -49.70555 14709 ft 293 kts 108°
2026-05-08 05:31 66.91407 -49.65461 15227 ft 299 kts 108°
2026-05-08 05:31 66.90902 -49.60297 15750 ft 302 kts 108°
2026-05-08 05:31 66.90393 -49.55088 16273 ft 305 kts 108°
2026-05-08 05:32 66.89870 -49.49801 16817 ft 311 kts 108°
2026-05-08 05:32 66.89338 -49.44419 17347 ft 315 kts 108°
2026-05-08 05:32 66.88801 -49.38995 17909 ft 318 kts 108°
2026-05-08 05:32 66.88251 -49.33496 18466 ft 325 kts 108°
2026-05-08 05:33 66.87688 -49.27862 18973 ft 329 kts 108°
2026-05-08 05:33 66.87120 -49.22193 19461 ft 333 kts 109°
2026-05-08 05:33 66.86536 -49.16425 19969 ft 341 kts 109°
2026-05-08 05:33 66.85937 -49.10515 20488 ft 348 kts 109°
2026-05-08 05:34 66.85352 -49.04526 20975 ft 352 kts 107°
2026-05-08 05:34 66.84871 -48.98343 21510 ft 360 kts 103°
2026-05-08 05:34 66.84493 -48.91967 22061 ft 372 kts 102°
2026-05-08 05:34 66.84090 -48.85421 22616 ft 377 kts 104°
2026-05-08 05:35 66.83629 -48.78855 23176 ft 379 kts 105°
2026-05-08 05:35 66.83155 -48.72201 23743 ft 387 kts 104°
2026-05-08 05:35 66.82694 -48.65408 24227 ft 393 kts 104°
2026-05-08 05:35 66.82233 -48.58561 24720 ft 392 kts 104°
2026-05-08 05:36 66.81756 -48.51732 25192 ft 395 kts 105°
2026-05-08 05:36 66.81267 -48.44840 25705 ft 400 kts 105°
2026-05-08 05:36 66.80777 -48.37862 26215 ft 402 kts 105°
2026-05-08 05:36 66.80284 -48.30869 26744 ft 403 kts 105°
2026-05-08 05:37 66.79784 -48.23864 27282 ft 404 kts 105°
2026-05-08 05:37 66.79274 -48.16812 27654 ft 410 kts 105°
2026-05-08 05:37 66.78760 -48.09728 27939 ft 418 kts 105°
2026-05-08 05:37 66.78229 -48.02425 28202 ft 425 kts 105°
2026-05-08 05:38 66.77685 -47.95003 28514 ft 432 kts 105°
2026-05-08 05:38 66.77128 -47.87456 28812 ft 439 kts 105°
2026-05-08 05:38 66.76559 -47.79802 29071 ft 447 kts 105°
2026-05-08 05:38 66.75970 -47.71964 29138 ft 459 kts 105°
2026-05-08 05:39 66.75362 -47.63906 29163 ft 472 kts 104°
2026-05-08 05:39 66.74736 -47.55645 29175 ft 485 kts 104°
2026-05-08 05:39 66.74087 -47.47174 29173 ft 494 kts 104°
2026-05-08 05:39 66.73448 -47.38802 29162 ft 475 kts 105°
2026-05-08 05:40 66.72815 -47.30624 29151 ft 476 kts 105°
2026-05-08 05:40 66.71498 -47.13993 29162 ft 484 kts 105°
2026-05-08 05:41 66.70183 -46.97389 29164 ft 481 kts 105°
2026-05-08 05:41 66.68837 -46.80792 29168 ft 483 kts 105°
2026-05-08 05:42 66.67482 -46.64237 29166 ft 481 kts 105°
2026-05-08 05:42 66.66100 -46.47630 29173 ft 489 kts 105°
2026-05-08 05:43 66.64693 -46.30886 29168 ft 486 kts 105°
2026-05-08 05:43 66.63269 -46.14252 29192 ft 487 kts 105°
2026-05-08 05:44 66.61828 -45.97585 29192 ft 485 kts 105°
2026-05-08 05:44 66.60374 -45.81033 29194 ft 485 kts 106°
2026-05-08 05:45 66.58899 -45.64428 29197 ft 485 kts 106°
2026-05-08 05:45 66.57413 -45.47917 29208 ft 485 kts 106°
2026-05-08 05:46 66.55903 -45.31376 29216 ft 486 kts 106°
2026-05-08 05:46 66.54392 -45.15005 29214 ft 484 kts 107°
2026-05-08 05:47 66.52864 -44.98531 29222 ft 484 kts 102°
2026-05-08 05:47 66.51308 -44.82033 29233 ft 489 kts 107°
2026-05-08 05:48 66.49681 -44.65412 29237 ft 490 kts 106°
2026-05-08 05:48 66.48098 -44.48859 29233 ft 489 kts 107°
2026-05-08 05:49 66.46457 -44.32315 29239 ft 490 kts 107°
2026-05-08 05:49 66.44824 -44.15802 29220 ft 488 kts 107°
2026-05-08 05:50 66.43160 -43.99308 29230 ft 490 kts 107°
2026-05-08 05:50 66.41484 -43.82824 29210 ft 489 kts 107°
2026-05-08 05:51 66.39790 -43.66384 29214 ft 489 kts 107°
2026-05-08 05:51 66.38086 -43.50027 29209 ft 490 kts 107°
2026-05-08 05:52 66.36347 -43.33529 29199 ft 489 kts 108°
2026-05-08 05:52 66.34599 -43.17130 29196 ft 492 kts 107°
2026-05-08 05:53 66.32823 -43.00647 29188 ft 492 kts 107°
2026-05-08 05:53 66.31040 -42.84288 29187 ft 491 kts 107°
2026-05-08 05:54 66.29231 -42.67871 29183 ft 491 kts 108°
2026-05-08 05:54 66.27413 -42.51550 29179 ft 490 kts 108°
2026-05-08 05:55 66.25571 -42.35212 29183 ft 492 kts 108°
2026-05-08 05:55 66.23717 -42.18918 29172 ft 490 kts 108°
2026-05-08 05:56 66.21861 -42.02789 29182 ft 491 kts 108°
2026-05-08 05:56 66.19972 -41.86541 29169 ft 490 kts 108°
2026-05-08 05:57 66.18071 -41.70365 29164 ft 490 kts 108°
2026-05-08 05:57 66.16149 -41.54169 29143 ft 493 kts 108°
2026-05-08 05:58 66.14195 -41.37880 29149 ft 494 kts 108°
2026-05-08 05:58 66.12232 -41.21681 29146 ft 492 kts 109°
2026-05-08 05:59 66.10249 -41.05482 29144 ft 492 kts 108°
2026-05-08 05:59 66.08256 -40.89365 29140 ft 491 kts 109°
2026-05-08 06:00 66.06242 -40.73240 29139 ft 493 kts 109°
2026-05-08 06:00 66.04217 -40.57176 29139 ft 491 kts 109°
2026-05-08 06:01 66.02169 -40.41108 29140 ft 493 kts 109°
2026-05-08 06:01 66.00110 -40.25095 29167 ft 491 kts 109°
2026-05-08 06:02 65.98033 -40.09102 29167 ft 492 kts 109°
2026-05-08 06:02 65.95929 -39.93066 29192 ft 499 kts 109°
2026-05-08 06:03 65.93770 -39.76780 29195 ft 500 kts 109°
2026-05-08 06:03 65.91608 -39.60638 29215 ft 500 kts 110°
2026-05-08 06:04 65.89425 -39.44475 29219 ft 499 kts 110°
2026-05-08 06:04 65.87230 -39.28393 29196 ft 499 kts 110°
2026-05-08 06:05 65.85025 -39.12375 29233 ft 495 kts 110°
2026-05-08 06:05 65.82825 -38.96548 29243 ft 497 kts 110°
2026-05-08 06:06 65.80590 -38.80612 29239 ft 496 kts 110°
2026-05-08 06:06 65.78340 -38.64717 29238 ft 497 kts 110°
2026-05-08 06:07 65.76072 -38.48833 29243 ft 496 kts 110°
2026-05-08 06:07 65.73777 -38.32922 29240 ft 504 kts 110°
2026-05-08 06:08 65.71452 -38.16915 29251 ft 499 kts 110°
2026-05-08 06:08 65.69121 -38.01040 29248 ft 501 kts 110°
2026-05-08 06:09 65.66763 -37.85103 29255 ft 500 kts 110°
2026-05-08 06:09 65.64396 -37.69259 29253 ft 500 kts 110°
2026-05-08 06:10 65.62009 -37.53415 29258 ft 502 kts 110°
2026-05-08 06:10 65.59608 -37.37615 29235 ft 498 kts 110°
2026-05-08 06:11 65.57257 -37.22002 29228 ft 498 kts 105°
2026-05-08 06:11 65.56253 -37.05508 29242 ft 498 kts 94°
2026-05-08 06:12 65.55456 -36.88975 29247 ft 496 kts 95°
2026-05-08 06:12 65.54726 -36.75088 29254 ft 498 kts 95°
2026-05-08 06:13 65.53877 -36.58544 29261 ft 496 kts 95°
2026-05-08 06:13 65.52997 -36.42127 29278 ft 498 kts 95°
2026-05-08 06:14 65.52102 -36.25612 29264 ft 495 kts 95°
2026-05-08 06:14 65.51192 -36.09209 29256 ft 494 kts 95°
2026-05-08 06:15 65.50261 -35.92762 29263 ft 495 kts 95°
2026-05-08 06:15 65.49314 -35.76348 29272 ft 497 kts 95°
2026-05-08 06:16 65.48338 -35.59752 29277 ft 500 kts 95°
2026-05-08 06:16 65.47347 -35.43255 29272 ft 499 kts 95°
2026-05-08 06:17 65.45825 -35.18463 29274 ft 498 kts 96°
2026-05-08 06:17 65.44792 -35.02015 29263 ft 495 kts 95°
2026-05-08 06:18 65.43748 -34.85656 29268 ft 497 kts 95°
2026-05-08 06:18 65.42678 -34.69259 29271 ft 496 kts 96°
2026-05-08 06:19 65.41595 -34.52868 29271 ft 500 kts 96°
2026-05-08 06:19 65.40491 -34.36518 29281 ft 498 kts 96°
2026-05-08 06:20 65.39369 -34.20105 29275 ft 500 kts 96°
2026-05-08 06:20 65.38223 -34.03667 29276 ft 498 kts 96°
2026-05-08 06:21 65.37065 -33.87301 29277 ft 497 kts 96°
2026-05-08 06:21 65.35893 -33.71000 29269 ft 496 kts 96°
2026-05-08 06:22 65.34699 -33.54666 29272 ft 498 kts 96°
2026-05-08 06:22 65.33492 -33.38399 29277 ft 495 kts 96°
2026-05-08 06:23 65.32289 -33.22178 29275 ft 495 kts 94°
2026-05-08 06:23 65.31498 -33.05849 29280 ft 493 kts 92°
2026-05-08 06:24 65.30492 -32.89603 29279 ft 495 kts 94°
2026-05-08 06:24 65.29563 -32.73300 29277 ft 494 kts 92°
2026-05-08 06:25 65.28578 -32.57101 29274 ft 492 kts 94°
2026-05-08 06:25 65.27591 -32.40871 29278 ft 493 kts 93°
2026-05-08 06:26 65.26585 -32.24796 29264 ft 484 kts 94°
2026-05-08 06:26 65.25579 -32.08820 29265 ft 489 kts 94°
2026-05-08 06:27 65.24548 -31.92911 29273 ft 487 kts 94°
2026-05-08 06:27 65.23504 -31.76924 29266 ft 489 kts 94°
2026-05-08 06:28 65.22426 -31.60808 29264 ft 487 kts 95°
2026-05-08 06:28 65.21346 -31.44877 29278 ft 487 kts 94°
2026-05-08 06:29 65.20260 -31.29110 29312 ft 486 kts 94°
2026-05-08 06:29 65.19154 -31.13378 29269 ft 476 kts 95°
2026-05-08 06:30 65.18046 -30.97713 29271 ft 482 kts 95°
2026-05-08 06:30 65.16910 -30.82056 29269 ft 479 kts 95°
2026-05-08 06:31 65.15765 -30.66395 29274 ft 481 kts 95°
2026-05-08 06:31 65.14599 -30.50765 29272 ft 479 kts 95°
2026-05-08 06:32 65.13419 -30.35129 29274 ft 482 kts 96°
2026-05-08 06:32 65.12218 -30.19492 29314 ft 479 kts 95°
2026-05-08 06:33 65.11015 -30.04021 29263 ft 474 kts 95°
2026-05-08 06:33 65.09799 -29.88566 29267 ft 478 kts 95°
2026-05-08 06:34 65.08559 -29.73109 29268 ft 476 kts 95°
2026-05-08 06:34 65.07310 -29.57666 29272 ft 478 kts 96°
2026-05-08 06:35 65.06048 -29.42336 29270 ft 476 kts 96°
2026-05-08 06:35 65.04757 -29.26825 29269 ft 478 kts 96°
2026-05-08 06:36 65.03454 -29.11401 29299 ft 477 kts 96°
2026-05-08 06:36 65.02149 -28.96143 29271 ft 474 kts 95°
2026-05-08 06:37 65.00823 -28.80806 29273 ft 477 kts 96°
2026-05-08 06:37 64.99476 -28.65479 29275 ft 475 kts 96°
2026-05-08 06:38 64.98116 -28.50151 29274 ft 477 kts 96°
2026-05-08 06:38 64.96737 -28.34844 29277 ft 476 kts 96°
2026-05-08 06:39 64.95347 -28.19572 29274 ft 477 kts 96°
2026-05-08 06:39 64.93935 -28.04265 29292 ft 477 kts 96°
2026-05-08 06:40 64.92515 -27.89060 29275 ft 474 kts 95°
2026-05-08 06:40 64.91085 -27.73891 29276 ft 474 kts 95°
2026-05-08 06:41 64.89636 -27.58737 29277 ft 474 kts 95°
2026-05-08 06:41 64.88172 -27.43595 29280 ft 474 kts 96°
2026-05-08 06:42 64.86692 -27.28462 29276 ft 474 kts 96°
2026-05-08 06:42 64.85198 -27.13353 29275 ft 475 kts 96°
2026-05-08 06:43 64.83685 -26.98247 29305 ft 476 kts 95°
2026-05-08 06:43 64.82171 -26.83294 29265 ft 471 kts 95°
2026-05-08 06:44 64.80639 -26.68270 29279 ft 474 kts 95°
2026-05-08 06:44 64.79090 -26.53337 29273 ft 471 kts 95°
2026-05-08 06:45 64.77528 -26.38354 29286 ft 473 kts 95°
2026-05-08 06:45 64.75949 -26.23444 29283 ft 471 kts 95°
2026-05-08 06:46 64.74356 -26.08509 29284 ft 473 kts 96°
2026-05-08 06:46 64.72746 -25.93603 29282 ft 472 kts 96°
2026-05-08 06:47 64.71120 -25.78686 29284 ft 474 kts 96°
2026-05-08 06:47 64.69479 -25.63806 29282 ft 472 kts 96°
2026-05-08 06:48 64.67825 -25.48943 29283 ft 472 kts 96°
2026-05-08 06:48 64.66161 -25.34159 29279 ft 470 kts 96°
2026-05-08 06:49 64.64480 -25.19351 29285 ft 472 kts 96°
2026-05-08 06:49 64.62786 -25.04605 29247 ft 472 kts 96°
2026-05-08 06:50 64.61931 -24.97156 28814 ft 474 kts 96°
2026-05-08 06:50 64.61075 -24.89900 28449 ft 456 kts 96°
2026-05-08 06:50 64.60248 -24.82916 28008 ft 438 kts 96°
2026-05-08 06:50 64.59467 -24.76191 27593 ft 423 kts 95°
2026-05-08 06:51 64.58708 -24.69691 27170 ft 410 kts 95°
2026-05-08 06:51 64.57971 -24.63470 26772 ft 399 kts 95°
2026-05-08 06:51 64.57231 -24.57228 26363 ft 394 kts 95°
2026-05-08 06:51 64.56500 -24.51083 25981 ft 396 kts 97°
2026-05-08 06:52 64.55346 -24.45132 25611 ft 409 kts 112°
2026-05-08 06:52 64.53889 -24.39474 25276 ft 407 kts 113°
2026-05-08 06:52 64.52463 -24.33923 24919 ft 403 kts 112°
2026-05-08 06:52 64.51039 -24.28261 24544 ft 399 kts 112°
2026-05-08 06:53 64.49642 -24.22728 24194 ft 397 kts 112°
2026-05-08 06:53 64.48237 -24.17237 23840 ft 394 kts 113°
2026-05-08 06:53 64.46842 -24.11789 23422 ft 392 kts 113°
2026-05-08 06:53 64.45456 -24.06376 22993 ft 388 kts 113°
2026-05-08 06:54 64.44081 -24.01021 22579 ft 385 kts 113°
2026-05-08 06:54 64.42738 -23.95801 22175 ft 382 kts 113°
2026-05-08 06:54 64.41383 -23.90544 21772 ft 379 kts 114°
2026-05-08 06:54 64.40033 -23.85327 21382 ft 377 kts 114°
2026-05-08 06:55 64.38688 -23.80139 21000 ft 374 kts 114°
2026-05-08 06:55 64.37351 -23.74995 20666 ft 371 kts 115°
2026-05-08 06:55 64.36032 -23.69932 20267 ft 366 kts 115°
2026-05-08 06:55 64.34726 -23.64930 19882 ft 362 kts 115°
2026-05-08 06:56 64.33427 -23.59958 19528 ft 360 kts 116°
2026-05-08 06:56 64.32144 -23.55071 19146 ft 354 kts 116°
2026-05-08 06:56 64.30875 -23.50240 18784 ft 351 kts 116°
2026-05-08 06:56 64.29610 -23.45430 18402 ft 350 kts 117°
2026-05-08 06:57 64.28343 -23.40639 17980 ft 348 kts 118°
2026-05-08 06:57 64.26814 -23.36360 17534 ft 350 kts 139°
2026-05-08 06:57 64.24730 -23.33506 17149 ft 349 kts 153°
2026-05-08 06:57 64.22529 -23.31158 16771 ft 348 kts 155°
2026-05-08 06:58 64.20346 -23.28903 16365 ft 340 kts 155°
2026-05-08 06:58 64.18237 -23.26664 15966 ft 329 kts 154°
2026-05-08 06:58 64.16189 -23.24455 15574 ft 322 kts 154°
2026-05-08 06:58 64.14172 -23.22302 15173 ft 318 kts 155°
2026-05-08 06:59 64.12171 -23.20178 14790 ft 316 kts 155°
2026-05-08 06:59 64.10176 -23.18061 14419 ft 315 kts 155°
2026-05-08 06:59 64.08189 -23.15957 13962 ft 315 kts 155°
2026-05-08 06:59 64.06206 -23.13857 13408 ft 311 kts 155°
2026-05-08 07:00 64.04916 -23.12493 13040 ft 308 kts 155°
2026-05-08 07:00 64.02985 -23.10456 12481 ft 303 kts 155°
2026-05-08 07:00 64.01084 -23.08451 11960 ft 300 kts 155°
2026-05-08 07:00 63.99201 -23.06471 11431 ft 296 kts 155°
2026-05-08 07:01 63.97346 -23.04522 10900 ft 292 kts 155°
2026-05-08 07:01 63.95511 -23.02595 10393 ft 289 kts 155°
2026-05-08 07:01 63.93697 -23.00697 9854 ft 286 kts 155°
2026-05-08 07:01 63.91900 -22.98815 9298 ft 283 kts 155°
2026-05-08 07:02 63.90120 -22.96956 8732 ft 280 kts 155°
2026-05-08 07:02 63.88357 -22.95116 8217 ft 278 kts 155°
2026-05-08 07:02 63.86607 -22.93294 7678 ft 276 kts 155°
2026-05-08 07:02 63.84872 -22.91482 7170 ft 273 kts 154°
2026-05-08 07:03 63.83336 -22.89057 6687 ft 268 kts 127°
2026-05-08 07:03 63.82502 -22.85462 6116 ft 251 kts 99°
2026-05-08 07:03 63.82436 -22.81631 5436 ft 245 kts 74°
2026-05-08 07:03 63.83068 -22.78190 4646 ft 236 kts 50°
2026-05-08 07:04 63.84076 -22.75922 3792 ft 189 kts 29°
2026-05-08 07:04 63.85319 -22.74565 3534 ft 202 kts 20°
2026-05-08 07:04 63.86593 -22.73290 3485 ft 198 kts 21°
2026-05-08 07:04 63.87868 -22.71993 3124 ft 205 kts 21°
2026-05-08 07:05 63.89185 -22.70631 2434 ft 215 kts 29°
2026-05-08 07:05 63.90259 -22.68121 1644 ft 209 kts 50°
2026-05-08 07:05 63.91010 -22.65894 1172 ft 155 kts 46°
2026-05-08 07:05 63.91694 -22.64161 365 ft 152 kts 39°
2026-05-08 07:06 63.92553 -22.62671 418 ft 140 kts 28°
2026-05-08 07:06 63.93298 -22.61781 58 ft 107 kts 40°